Flag for U.S.A. Weather past 2 weeks in Tallahassee, Florida, U.S.A.

Now
75 °F

Passing clouds.


Feels Like: 74 °F
Forecast: 71 / 88 °F
Wind: 3 mph from Southeast

Location: Tallahassee Regional Airport

Current Time: Aug 29, 2015 at 11:42:22 PM

Latest Report: Aug 29, 2015 at 10:53 PM


Visibility: 10 mi

Pressure: 30.07 "Hg

Humidity: 90%

Dew point: 72 °F

Location of TallahasseeLocation

Historic Weather in Tallahassee — Graph

°F

Tallahassee temperature yesterday

Maximum temperature yesterday: 89 °F (at 4:53 PM)
Minimum temperature yesterday: 75 °F (at 5:53 AM)
Average temperature yesterday: 80 °F

Past Weeks' High & Low Weather Summary

 TemperatureHumidityPressure
High99 °F (Aug 21, 11:53 AM)100% (Aug 17, 9:53 PM)30.13 "Hg (Aug 17, 9:53 PM)
Low66 °F (Aug 27, 4:53 AM)29% (Aug 26, 6:53 PM)29.85 "Hg (Aug 25, 5:53 PM)
Average82 °F76%30.00 "Hg
* Reported Aug 14 9:53 PM — Aug 29 9:53 PM, Tallahassee, Weather by CustomWeather, © 2015

Note: Actual official high and low records may vary slightly from our data, if they occured in-between our weather recording intervals... More about our weather records

Advertising

Tallahassee weather history for previous 24 hours

 ConditionsComfort  
Time TempWeatherWind HumidityBarometerVisibility
9:53 PM
Sat, Aug 29
76 °FPassing clouds.No wind88%30.07 "Hg10 mi
8:53 PM77 °FBroken clouds.7 mph85%30.05 "Hg10 mi
7:53 PM80 °FPartly sunny.7 mph81%30.03 "Hg10 mi
6:53 PM82 °FMostly cloudy.5 mph72%30.02 "Hg10 mi
5:53 PM83 °FPartly sunny.6 mph70%30.02 "Hg10 mi
4:53 PM83 °FPartly sunny.6 mph68%30.04 "Hg10 mi
3:53 PM83 °FBroken clouds.6 mph68%30.06 "Hg10 mi
2:53 PM82 °FPartly sunny.8 mph74%30.08 "Hg10 mi
1:53 PM81 °FLight rain. Mostly cloudy.5 mph74%30.11 "Hg10 mi
12:53 PM79 °FLight rain. Cloudy.3 mph88%30.12 "Hg10 mi
12:00 PM79 °FLight rain. Mostly cloudy.7 mph88%30.13 "Hg10 mi
10:53 AM77 °FThunderstorms. Fog.3 mph90%30.12 "Hg6 mi
9:53 AM78 °FPartly sunny.3 mph82%30.11 "Hg10 mi
8:53 AM77 °FPartly sunny.3 mph85%30.09 "Hg10 mi
7:53 AM75 °FMostly cloudy.3 mph88%30.09 "Hg10 mi
6:53 AM75 °FMostly cloudy.3 mph88%30.07 "Hg10 mi
5:53 AM74 °FMostly cloudy.No wind88%30.07 "Hg10 mi
4:53 AM74 °FMostly cloudy.3 mph88%30.07 "Hg10 mi
3:53 AM75 °FMostly cloudy.6 mph85%30.05 "Hg10 mi
2:53 AM74 °FMostly cloudy.No wind88%30.05 "Hg10 mi
1:53 AM74 °FPassing clouds.3 mph85%30.06 "Hg10 mi
12:53 AM74 °FClear.5 mph85%30.08 "Hg10 mi
11:53 PM
Fri, Aug 28
75 °FClear.7 mph82%30.08 "Hg10 mi
Weather by CustomWeather, © 2015

See weather overviewHow to use our weather pages